Home   Weather   Borken   Past weeks

Flag for Germany Past Weather in Borken, North Rhine-Westphalia, Germany — Yesterday and Last 2 Weeks

Now
62 °F

Overcast.


Feels Like: 62 °F
Forecast: 58 / 71 °F
Wind: 5 mph from Southwest

Location: Twenthe

Current Time: Sep 28, 2016 at 5:38:22 AM

Latest Report: Sep 28, 2016 at 4:00 AM


Visibility: 25 mi

Pressure: 30.22 "Hg

Humidity: 60%

Dew Point: 47 °F

Location of BorkenLocation

Past Weather in Borken — Graph

°F

Borken Temperature Yesterday

Maximum temperature yesterday: 70 °F (at 4:00 PM)
Minimum temperature yesterday: 43 °F (at 8:00 AM)
Average temperature yesterday: 57 °F

High & Low Weather Summary for the Past Weeks

 TemperatureHumidityPressure
High89 °F (Sep 13, 5:00 PM)100% (Sep 17, 4:00 AM)30.31 "Hg (Sep 17, 4:00 AM)
Low42 °F (Sep 20, 6:00 AM)38% (Sep 25, 4:00 PM)29.82 "Hg (Sep 15, 5:00 PM)
Average62 °F75%30.08 "Hg
* Reported Sep 13 4:00 AM — Sep 28 4:00 AM, Borken, Weather by CustomWeather, © 2016

Note: Actual official high and low records may vary slightly from our data, if they occured in-between our weather recording intervals... More about our weather records

Advertising

Borken Weather History for the Previous 24 Hours

Scroll right to see more
 ConditionsComfort  
Time TempWeatherWind HumidityBarometerVisibility
4:00 AM
Wed, Sep 28
62 °FOvercast.5 mph60%30.22 "Hg25 mi
3:00 AM62 °FOvercast.7 mph55%30.23 "Hg25 mi
2:00 AM60 °FOvercast.5 mph64%30.24 "Hg17 mi
1:00 AM60 °FOvercast.5 mph66%30.25 "Hg12 mi
12:00 AM59 °FOvercast.5 mph69%30.26 "Hg12 mi
11:00 PM
Tue, Sep 27
59 °FOvercast.5 mph71%30.27 "Hg12 mi
10:00 PM56 °FOvercast.3 mph78%30.28 "Hg13 mi
9:00 PM52 °FPassing clouds.1 mph88%30.29 "Hg14 mi
8:00 PM55 °FOvercast.1 mph84%30.28 "Hg14 mi
7:00 PM60 °FPartly sunny.2 mph69%30.27 "Hg16 mi
6:00 PM68 °FSunny.3 mph51%30.28 "Hg18 mi
5:00 PM69 °FScattered clouds.6 mph50%30.27 "Hg16 mi
4:00 PM70 °FOvercast.6 mph50%30.28 "Hg17 mi
3:00 PM70 °FPassing clouds.3 mph52%30.29 "Hg16 mi
2:00 PM69 °FPassing clouds.3 mph51%30.30 "Hg7 mi
1:00 PM68 °FSunny.3 mph54%30.31 "Hg18 mi
12:00 PM65 °FSunny.2 mph66%30.31 "Hg14 mi
11:00 AM63 °FSunny.1 mph68%30.30 "Hg16 mi
10:00 AM58 °FSunny.1 mph84%30.29 "Hg9 mi
9:00 AM48 °FSunny.No wind99%30.30 "Hg7 mi
8:00 AM43 °FSunny.No wind100%30.30 "Hg0 mi
7:00 AM43 °FClear.1 mph100%30.27 "Hg0 mi
6:00 AM44 °FPassing clouds.1 mph100%30.27 "Hg1 mi
5:00 AM45 °FPassing clouds.1 mph100%30.27 "Hg3 mi
Weather by CustomWeather, © 2016

See weather overviewHow to use our weather pages